Location: Cheyres
(46.8153°N, 6.7877°E)
Time: 02:59:40
(UTC+00:00)

Okean 2 Rocket - Pass Details

Date: 11 May 2021
Orbit: 617 x 641 km, 82.5° (Epoch: 18 June)

Event Time Altitude Azimuth Distance (km) Brightness Sun altitude
Rises 23:17:13 0° 359° (N) 2,903 7.9 -25.0°
Reaches altitude 10° 23:19:40 10° 10° (N) 1,992 6.7 -25.0°
Maximum altitude 23:23:36 31° 73° (ENE) 1,086 4.4 -25.0°
Enters shadow 23:23:58 31° 83° (E) 1,096 4.3 -25.0°
